KD9ZDW Weather Reports


time (UTC)temp
C
wind
direction
speed
KPH
gust
KPH
rain 1hr
cm
rain 24hr
cm
rain mn
cm
humidity
%
barometer
mb
20260504150843 17 260 14.5 16.1 0.00 0.00 0.00 58 1007.6
20260504150339 17 228 4.8 11.3 0.00 0.00 0.00 58 1007.8
20260504141309 15 285 4.8 9.7 0.00 0.00 0.00 66 1008.2
20260504140806 16 234 4.8 4.8 0.00 0.00 0.00 64 1008.2
20260504140302 15 229 3.2 8.0 0.00 0.00 0.00 65 1008.3
20260504130730 13 232 3.2 9.7 0.00 0.00 0.00 69 1008.4
20260504130226 13 242 8.0 9.7 0.00 0.00 0.00 68 1008.5
20260504120150 11 227 4.8 4.8 0.00 0.00 0.00 72 1008.7
20260504110618 10 227 3.2 3.2 0.00 0.00 0.00 78 1008.7
20260504110114 9 263 0.0 3.2 0.00 0.00 0.00 77 1008.6
20260504100539 9 207 3.2 3.2 0.00 0.00 0.00 78 1008.7
20260504081933 6 274 0.0 1.6 0.00 0.00 0.00 90 1009.0
20260504081430 6 290 0.0 1.6 0.00 0.00 0.00 90 1009.4
20260504080926 6 301 1.6 1.6 0.00 0.00 0.00 90 1009.2
20260504080423 6 273 0.0 0.0 0.00 0.00 0.00 90 1009.2
20260504070350 6 260 0.0 0.0 0.00 0.00 0.00 91 1010.0
20260504050738 7 255 0.0 0.0 0.00 0.00 0.00 82 1011.1
20260504050235 8 256 0.0 0.0 0.00 0.00 0.00 81 1011.1
20260504045732 8 264 0.0 0.0 0.00 0.00 0.00 80 1011.1
20260504045227 8 243 0.0 1.6 0.00 0.00 0.00 79 1011.1
20260504044725 8 226 1.6 1.6 0.00 0.00 0.00 79 1011.2
20260504044222 8 233 1.6 1.6 0.00 0.00 0.00 79 1011.3
20260504043719 8 234 1.6 1.6 0.00 0.00 0.00 79 1011.2
20260504043216 8 222 1.6 3.2 0.00 0.00 0.00 79 1011.4
20260504042714 8 252 1.6 1.6 0.00 0.00 0.00 79 1011.4
20260504042210 8 228 1.6 1.6 0.00 0.00 0.00 80 1011.4
20260504041706 8 260 0.0 1.6 0.00 0.00 0.00 79 1011.5
20260504041202 8 247 3.2 3.2 0.00 0.00 0.00 79 1011.5
20260504040659 8 243 1.6 1.6 0.00 0.00 0.00 79 1011.6
20260504040156 8 255 0.0 1.6 0.00 0.00 0.00 79 1011.4
20260504035652 8 236 0.0 1.6 0.00 0.00 0.00 79 1011.5
20260504035150 8 244 1.6 1.6 0.00 0.00 0.00 79 1011.5
20260504034647 8 251 0.0 1.6 0.00 0.00 0.00 79 1011.7
20260504034144 8 238 1.6 1.6 0.00 0.00 0.00 79 1011.7
20260504033642 8 230 1.6 1.6 0.00 0.00 0.00 79 1011.7
20260504033139 8 231 1.6 3.2 0.00 0.00 0.00 79 1012.0
20260504032635 8 213 1.6 1.6 0.00 0.00 0.00 79 1011.8
20260504032132 8 230 1.6 1.6 0.00 0.00 0.00 79 1011.9
20260504031630 8 246 1.6 3.2 0.00 0.00 0.00 79 1012.0
20260504031126 8 236 1.6 1.6 0.00 0.00 0.00 79 1012.2
20260504030623 8 229 1.6 1.6 0.00 0.00 0.00 80 1012.1
20260504030119 8 229 1.6 3.2 0.00 0.00 0.00 80 1012.1
20260504025616 8 228 1.6 3.2 0.00 0.00 0.00 80 1012.2
20260504025113 8 226 1.6 1.6 0.00 0.00 0.00 80 1012.2
20260504024611 8 215 1.6 3.2 0.00 0.00 0.00 80 1012.3
20260504024107 8 211 1.6 3.2 0.00 0.00 0.00 80 1012.3
20260504023603 8 198 1.6 3.2 0.00 0.00 0.00 80 1012.4
20260504023059 8 200 1.6 3.2 0.00 0.00 0.00 80 1012.4
20260504022556 8 233 1.6 1.6 0.00 0.00 0.00 81 1012.4
20260504022052 8 228 1.6 1.6 0.00 0.00 0.00 80 1012.4
20260504021549 8 247 3.2 3.2 0.00 0.00 0.00 80 1012.2
20260504021046 8 236 1.6 3.2 0.00 0.00 0.00 79 1012.3
20260504020543 9 220 1.6 3.2 0.00 0.00 0.00 79 1012.4
20260504020040 9 263 1.6 3.2 0.00 0.00 0.00 79 1012.4
20260504015536 9 252 4.8 4.8 0.00 0.00 0.00 79 1012.4
20260504015032 9 212 3.2 4.8 0.00 0.00 0.00 79 1012.3
20260504014528 9 244 1.6 4.8 0.00 0.00 0.00 78 1012.3
20260504014026 9 285 0.0 4.8 0.00 0.00 0.00 78 1012.2
20260504013524 9 249 1.6 8.0 0.00 0.00 0.00 78 1012.4
20260504013020 10 256 3.2 4.8 0.00 0.00 0.00 77 1012.4
20260504012518 10 230 3.2 8.0 0.00 0.00 0.00 77 1012.5
20260504012016 10 166 3.2 8.0 0.00 0.00 0.00 77 1012.4
20260504011512 10 229 3.2 4.8 0.00 0.00 0.00 76 1012.5
20260504011008 10 255 1.6 8.0 0.00 0.00 0.00 76 1012.4
20260504010504 10 219 1.6 4.8 0.00 0.00 0.00 76 1012.4
20260504010000 10 243 1.6 4.8 0.00 0.00 0.00 76 1012.5
20260504005456 10 230 0.0 1.6 0.00 0.00 0.00 77 1012.4
20260504004954 10 179 3.2 8.0 0.00 0.00 0.00 77 1012.6
20260504004452 10 188 1.6 3.2 0.00 0.00 0.00 77 1012.5
20260504003949 10 218 1.6 4.8 0.00 0.00 0.00 77 1012.7
20260504003445 10 226 3.2 9.7 0.00 0.00 0.00 77 1012.6
20260504002942 10 211 3.2 4.8 0.00 0.00 0.00 77 1012.8
20260504002439 10 228 4.8 4.8 0.00 0.00 0.00 77 1012.9
20260504001936 10 157 4.8 8.0 0.00 0.00 0.00 78 1012.8
20260504001433 10 184 3.2 4.8 0.00 0.00 0.00 78 1012.8
20260504000930 10 247 3.2 4.8 0.00 0.00 0.00 78 1012.8
20260504000427 10 244 0.0 3.2 0.00 0.00 0.00 77 1012.8
20260503235924 10 212 1.6 4.8 0.00 0.00 0.00 77 1013.0
20260503235422 10 199 4.8 4.8 0.00 0.00 0.00 77 1013.0
20260503234919 10 208 4.8 4.8 0.00 0.00 0.00 76 1013.0
20260503234417 10 190 3.2 8.0 0.00 0.00 0.00 76 1013.2
20260503233914 10 237 3.2 3.2 0.00 0.00 0.00 76 1013.0
20260503233411 10 252 0.0 4.8 0.00 0.00 0.00 76 1013.1
20260503232907 10 216 1.6 4.8 0.00 0.00 0.00 75 1013.2
20260503232405 10 231 1.6 3.2 0.00 0.00 0.00 76 1013.2
20260503231902 10 209 3.2 4.8 0.00 0.00 0.00 75 1013.3
20260503231359 10 206 1.6 8.0 0.00 0.00 0.00 75 1013.4
20260503230855 10 200 1.6 9.7 0.00 0.00 0.00 75 1013.3
20260503230352 10 250 4.8 4.8 0.00 0.00 0.00 76 1013.4
20260503225850 10 240 3.2 3.2 0.00 0.00 0.00 77 1013.5
20260503225345 10 248 3.2 4.8 0.00 0.00 0.00 76 1013.6
20260503224842 10 182 4.8 11.3 0.00 0.00 0.00 76 1013.7
20260503224339 10 218 3.2 4.8 0.00 0.00 0.00 76 1013.6
20260503223837 10 263 1.6 4.8 0.00 0.00 0.00 77 1013.5
20260503223334 10 287 1.6 4.8 0.00 0.00 0.00 77 1013.7
20260503222830 10 223 1.6 8.0 0.00 0.00 0.00 76 1013.9
20260503222329 10 247 1.6 3.2 0.00 0.00 0.00 77 1013.9
20260503221826 10 246 1.6 3.2 0.00 0.00 0.00 77 1014.1
20260503221325 10 174 3.2 4.8 0.00 0.00 0.00 77 1013.7
20260503220820 10 219 4.8 4.8 0.00 0.00 0.00 76 1013.9
20260503220318 10 239 0.0 3.2 0.00 0.00 0.00 76 1014.0
20260503215814 10 272 1.6 4.8 0.00 0.00 0.00 76 1014.0
20260503215312 10 229 3.2 4.8 0.00 0.00 0.00 76 1014.2
20260503214809 10 230 1.6 4.8 0.00 0.00 0.00 77 1014.1
20260503214306 10 271 4.8 8.0 0.00 0.00 0.00 76 1014.1
20260503213804 10 258 3.2 9.7 0.00 0.00 0.00 76 1014.2
20260503213301 10 190 4.8 9.7 0.00 0.00 0.00 75 1014.3
20260503212758 10 232 3.2 4.8 0.00 0.00 0.00 76 1014.6
20260503212256 10 204 4.8 9.7 0.00 0.00 0.00 76 1014.4
20260503211753 10 226 3.2 4.8 0.00 0.00 0.00 77 1014.8
20260503211249 10 213 4.8 11.3 0.00 0.00 0.00 76 1014.8
20260503210744 10 221 6.4 11.3 0.00 0.00 0.00 74 1015.3
20260503210242 10 237 4.8 11.3 0.00 0.00 0.00 73 1015.1
20260503205742 11 256 4.8 20.9 0.00 0.00 0.00 70 1015.3
20260503205239 11 190 16.1 24.1 0.00 0.00 0.00 68 1015.4
20260503204735 11 227 14.5 22.5 0.00 0.00 0.00 66 1015.5
20260503204233 11 219 4.8 22.5 0.00 0.00 0.00 67 1015.8
20260503203730 11 72 8.0 22.5 0.00 0.00 0.00 65 1015.5
20260503203228 11 311 14.5 41.8 0.00 0.00 0.00 64 1015.8
20260503202725 11 246 8.0 33.8 0.00 0.00 0.00 65 1015.8
20260503202223 11 187 22.5 33.8 0.00 0.00 0.00 63 1015.8
20260503201720 12 215 12.9 27.4 0.00 0.00 0.00 63 1015.9
20260503201218 12 267 12.9 37.0 0.00 0.00 0.00 61 1015.8
20260503200714 12 321 24.1 46.7 0.00 0.00 0.00 58 1015.8
20260503200210 12 205 22.5 32.2 0.00 0.00 0.00 58 1015.7
20260503195707 13 265 11.3 37.0 0.00 0.00 0.00 56 1015.8
20260503195204 14 278 11.3 33.8 0.00 0.00 0.00 53 1015.7
20260503194701 15 213 4.8 33.8 0.00 0.00 0.00 48 1015.4
20260503194156 15 264 19.3 24.1 0.00 0.00 0.00 46 1015.3
20260503193653 15 253 17.7 24.1 0.00 0.00 0.00 45 1015.3
20260503193149 15 313 17.7 24.1 0.00 0.00 0.00 45 1015.4
20260503192645 15 259 8.0 17.7 0.00 0.00 0.00 44 1015.3
20260503192141 15 222 8.0 17.7 0.00 0.00 0.00 45 1015.5
20260503191638 15 189 9.7 14.5 0.00 0.00 0.00 45 1015.6
20260503191135 15 250 16.1 24.1 0.00 0.00 0.00 43 1015.4
20260503190632 15 313 4.8 9.7 0.00 0.00 0.00 46 1015.6
20260503190128 15 265 11.3 20.9 0.00 0.00 0.00 45 1015.6
20260503185625 15 167 11.3 22.5 0.00 0.00 0.00 44 1015.6
20260503185120 15 336 14.5 25.7 0.00 0.00 0.00 43 1015.6
20260503184615 15 270 4.8 17.7 0.00 0.00 0.00 43 1015.6
20260503184112 15 207 9.7 16.1 0.00 0.00 0.00 44 1015.6
20260503183609 15 272 16.1 25.7 0.00 0.00 0.00 42 1015.8
20260503183106 15 206 9.7 14.5 0.00 0.00 0.00 41 1015.8
20260503182605 16 337 9.7 11.3 0.00 0.00 0.00 42 1016.0
20260503182102 15 204 8.0 16.1 0.00 0.00 0.00 42 1015.9
20260503181559 15 258 6.4 14.5 0.00 0.00 0.00 42 1016.1
20260503181055 15 234 6.4 14.5 0.00 0.00 0.00 41 1016.2
20260503180553 15 277 8.0 11.3 0.00 0.00 0.00 41 1016.3
20260503180050 16 274 16.1 24.1 0.00 0.00 0.00 40 1016.4
20260503175547 15 242 14.5 24.1 0.00 0.00 0.00 40 1016.3
20260503175044 15 226 9.7 17.7 0.00 0.00 0.00 39 1016.3
20260503174542 15 283 8.0 22.5 0.00 0.00 0.00 40 1016.4
20260503174038 16 294 8.0 14.5 0.00 0.00 0.00 40 1016.4
20260503173533 15 225 4.8 17.7 0.00 0.00 0.00 40 1016.6
20260503173029 15 281 8.0 24.1 0.00 0.00 0.00 38 1016.6
20260503172527 15 254 3.2 9.7 0.00 0.00 0.00 41 1016.6
20260503172024 15 207 14.5 32.2 0.00 0.00 0.00 37 1016.9
20260503171520 15 300 14.5 29.0 0.00 0.00 0.00 38 1016.8
20260503171018 15 268 11.3 22.5 0.00 0.00 0.00 40 1016.8
20260503170514 15 221 6.4 33.8 0.00 0.00 0.00 40 1017.0